DW9837 Weather Reports


Display with metric or nautical units.
time (UTC)temp
F
wind
direction
speed
MPH
gust
MPH
rain 1hr
in
rain 24hr
in
rain mn
in
humidity
%
barometer
mb
20260506171602 61 248 1.0 4.0 0.00 0.00 0.00 78 1010.1
20260506170052 61 191 3.0 9.0 0.00 0.00 0.00 77 1010.5
20260506164557 62 165 1.0 7.0 0.00 0.00 0.00 75 1010.5
20260506163104 62 193 3.0 10.0 0.00 0.00 0.00 75 1010.5
20260506161549 63 270 1.0 9.0 0.00 0.00 0.00 75 1010.9
20260506160051 62 166 3.0 15.0 0.00 0.00 0.00 76 1011.1
20260506154552 63 264 6.0 19.0 0.00 0.00 0.00 75 1011.3
20260506153050 63 189 5.0 14.0 0.00 0.00 0.00 75 1011.3
20260506151547 64 329 3.0 14.0 0.00 0.00 0.00 73 1011.2
20260506150045 64 205 4.0 13.0 0.00 0.00 0.00 73 1011.2
20260506144545 63 169 6.0 17.0 0.00 0.00 0.00 74 1011.2
20260506143042 62 285 3.0 13.0 0.00 0.00 0.00 77 1011.5
20260506141541 62 208 2.0 13.0 0.00 0.00 0.00 76 1011.3
20260506140041 62 34 5.0 16.0 0.00 0.00 0.00 76 1011.2
20260506134540 61 315 3.0 12.0 0.00 0.00 0.00 77 1011.1
20260506133041 63 239 1.0 12.0 0.00 0.00 0.00 76 1010.9
20260506131538 62 248 3.0 10.0 0.00 0.00 0.00 77 1011.2
20260506130038 62 197 6.0 15.0 0.00 0.00 0.00 77 1011.5
20260506124532 61 271 2.0 12.0 0.00 0.00 0.00 78 1011.5
20260506123031 61 256 2.0 11.0 0.00 0.00 0.00 79 1011.5
20260506121530 60 201 3.0 10.0 0.00 0.00 0.00 80 1011.6
20260506120028 60 226 3.0 11.0 0.00 0.00 0.00 81 1011.4
20260506114525 59 183 3.0 12.0 0.00 0.00 0.00 82 1011.5
20260506113025 59 171 3.0 11.0 0.00 0.00 0.00 82 1011.5
20260506111528 58 251 2.0 9.0 0.00 0.00 0.00 83 1011.5
20260506110022 58 274 2.0 10.0 0.00 0.00 0.00 85 1011.7
20260506104522 57 163 1.0 10.0 0.00 0.00 0.00 86 1011.4
20260506103020 57 267 3.0 10.0 0.00 0.00 0.00 86 1011.5
20260506101519 57 208 3.0 6.0 0.00 0.00 0.00 86 1011.5
20260506100017 57 199 3.0 9.0 0.00 0.00 0.00 86 1011.3
20260506094517 57 297 3.0 9.0 0.00 0.00 0.00 87 1011.2
20260506093014 57 265 2.0 7.0 0.00 0.00 0.00 87 1011.3
20260506091514 57 251 2.0 9.0 0.00 0.00 0.00 87 1011.3
20260506090011 57 205 2.0 8.0 0.00 0.00 0.00 86 1011.4
20260506084510 57 176 2.0 11.0 0.00 0.00 0.00 86 1011.5
20260506083015 57 255 2.0 5.0 0.00 0.00 0.00 85 1011.5
20260506081508 57 196 1.0 10.0 0.00 0.00 0.00 85 1011.5
20260506073005 57 227 1.0 8.0 0.00 0.00 0.00 84 1011.8
20260506071503 57 252 1.0 8.0 0.00 0.00 0.00 84 1011.7
20260506061554 57 197 3.0 9.0 0.00 0.00 0.00 84 1012.1
20260506050103 58 283 2.0 8.0 0.00 0.00 0.00 81 1012.5
20260506044545 58 254 1.0 7.0 0.00 0.00 0.00 80 1012.6
20260506043040 58 252 1.0 6.0 0.00 0.00 0.00 79 1012.6
20260506041552 59 339 2.0 8.0 0.00 0.00 0.00 79 1012.6
20260506040035 59 234 3.0 15.0 0.00 0.00 0.00 78 1012.5
20260506034548 59 293 2.0 12.0 0.00 0.00 0.00 78 1012.7
20260506033033 58 266 3.0 8.0 0.00 0.00 0.00 78 1012.5
20260506031533 58 194 1.0 6.0 0.00 0.00 0.00 77 1012.3
20260506030036 59 249 2.0 6.0 0.00 0.00 0.00 76 1012.3
20260506024533 59 319 1.0 7.0 0.00 0.00 0.00 76 1012.4
20260506023030 59 272 1.0 5.0 0.00 0.00 0.00 76 1012.2
20260506021529 59 284 2.0 6.0 0.00 0.00 0.00 75 1012.3
20260506020027 59 289 1.0 3.0 0.00 0.00 0.00 75 1012.2
20260506014527 59 336 2.0 10.0 0.00 0.00 0.00 74 1012.1
20260506013037 59 268 2.0 7.0 0.00 0.00 0.00 74 1012.0
20260506011527 59 244 3.0 9.0 0.00 0.00 0.00 74 1011.6
20260506010027 58 216 2.0 6.0 0.00 0.00 0.00 75 1011.7
20260506004523 59 266 3.0 7.0 0.00 0.00 0.00 75 1011.5
20260506003024 59 118 3.0 10.0 0.00 0.00 0.00 74 1011.2
20260506001523 59 291 1.0 7.0 0.00 0.00 0.00 74 1010.9
20260506000023 59 322 4.0 16.0 0.00 0.00 0.00 74 1010.6
20260505234522 59 199 1.0 7.0 0.00 0.00 0.00 74 1010.2
20260505233026 59 149 1.0 6.0 0.00 0.00 0.00 74 1010.3
20260505231523 59 106 1.0 8.0 0.00 0.00 0.00 73 1010.9
20260505230020 60 283 1.0 5.0 0.00 0.00 0.00 72 1010.7
20260505224520 61 293 3.0 11.0 0.00 0.00 0.00 70 1010.6
20260505223019 62 140 3.0 10.0 0.00 0.00 0.00 69 1010.4
20260505221519 61 153 4.0 9.0 0.00 0.00 0.00 68 1010.2
20260505220030 62 308 2.0 11.0 0.00 0.00 0.00 67 1010.2
20260505214522 63 300 2.0 6.0 0.00 0.00 0.00 67 1010.4
20260505213017 64 81 1.0 8.0 0.00 0.00 0.00 65 1010.5
20260505211516 65 198 3.0 8.0 0.00 0.00 0.00 63 1010.0
20260505210015 65 286 4.0 9.0 0.00 0.00 0.00 64 1010.1
20260505204514 66 175 3.0 9.0 0.00 0.00 0.00 63 1009.9
20260505203014 67 313 3.0 10.0 0.00 0.00 0.00 61 1009.9
20260505201512 67 310 3.0 10.0 0.00 0.00 0.00 61 1009.9
20260505200016 66 303 2.0 9.0 0.00 0.00 0.00 62 1010.1
20260505194509 66 252 2.0 12.0 0.00 0.00 0.00 64 1010.2
20260505193007 65 173 4.0 11.0 0.00 0.00 0.00 65 1010.3
20260505191511 66 170 3.0 11.0 0.00 0.00 0.00 65 1010.3
20260505190005 66 178 5.0 10.0 0.00 0.00 0.00 64 1010.4
20260505184502 67 172 2.0 7.0 0.00 0.00 0.00 62 1010.5
20260505183100 66 255 2.0 9.0 0.00 0.00 0.00 65 1010.6
20260505181600 66 230 4.0 9.0 0.00 0.00 0.00 64 1010.7
20260505180059 65 191 4.0 13.0 0.00 0.00 0.00 66 1010.7
20260505174603 65 183 4.0 10.0 0.00 0.00 0.00 66 1010.9
20260505173056 66 182 5.0 10.0 0.00 0.00 0.00 64 1010.9